Weather Data

Pearl Creek Farm: 8878 N Farm Road 75, Walnut Grove MO 65770

<== Previous Day (Tuesday 08 Jan 2013) | Next Day (Thursday 10 Jan 2013) ==>

Summary Precipitation Data For Wednesday 09 January 2013

ElementValueUnits
Precipitation0.18"
NotesRain last night was not predicted and unexpected. This morning, it was foggy and fairly warm.
SourcePearl Creek Farm

Summary Temperature Data For Wednesday 09 January 2013

ElementValueUnits
High Temperature56 oF
Low Temperature44 oF
Average Temperature48 oF
High Humidity93 %
Low Humidity60 %
Average Humidity80 %
SourcePearl Creek Farm

Detail Temperature Data For Wednesday 09 January 2013

Date / TimeTemp (F)RH (%)Dew Pt (F)Report Date / TimeSource
2013-01-09 00:00:00 48 90 45.1 2013-01-27 10:51:56 Pearl Creek Farm
2013-01-09 00:30:00 48 90 45.2 2013-01-27 10:51:56 Pearl Creek Farm
2013-01-09 01:00:00 48 89 44.9 2013-01-27 10:51:56 Pearl Creek Farm
2013-01-09 01:30:00 47 89 43.9 2013-01-27 10:51:56 Pearl Creek Farm
2013-01-09 02:00:00 46 90 43.2 2013-01-27 10:51:56 Pearl Creek Farm
2013-01-09 02:30:00 46 90 43.1 2013-01-27 10:51:56 Pearl Creek Farm
2013-01-09 03:00:00 46 90 43.2 2013-01-27 10:51:56 Pearl Creek Farm
2013-01-09 03:30:00 47 92 44.7 2013-01-27 10:51:56 Pearl Creek Farm
2013-01-09 04:00:00 47 91 44.4 2013-01-27 10:51:56 Pearl Creek Farm
2013-01-09 04:30:00 46 91 43.5 2013-01-27 10:51:56 Pearl Creek Farm
2013-01-09 05:00:00 46 92 43.7 2013-01-27 10:51:56 Pearl Creek Farm
2013-01-09 05:30:00 45 91 42.5 2013-01-27 10:51:56 Pearl Creek Farm
2013-01-09 06:00:00 44 91 41.5 2013-01-27 10:51:56 Pearl Creek Farm
2013-01-09 06:30:00 44 93 42.0 2013-01-27 10:51:56 Pearl Creek Farm
2013-01-09 07:00:00 44 93 42.0 2013-01-27 10:51:56 Pearl Creek Farm
2013-01-09 07:30:00 44 93 42.0 2013-01-27 10:51:56 Pearl Creek Farm
2013-01-09 08:00:00 44 93 42.0 2013-01-27 10:51:56 Pearl Creek Farm
2013-01-09 08:30:00 44 93 42.1 2013-01-27 10:51:56 Pearl Creek Farm
2013-01-09 09:00:00 44 93 42.0 2013-01-27 10:51:56 Pearl Creek Farm
2013-01-09 09:30:00 45 93 43.0 2013-01-27 10:51:56 Pearl Creek Farm
2013-01-09 10:00:00 45 93 43.0 2013-01-27 10:51:56 Pearl Creek Farm
2013-01-09 10:30:00 46 91 43.4 2013-01-27 10:51:56 Pearl Creek Farm
2013-01-09 11:00:00 47 90 44.1 2013-01-27 10:51:56 Pearl Creek Farm
2013-01-09 11:30:00 49 86 45.0 2013-01-27 10:51:56 Pearl Creek Farm
2013-01-09 12:00:00 51 82 45.5 2013-01-27 10:51:56 Pearl Creek Farm
2013-01-09 12:30:00 52 76 44.7 2013-01-27 10:51:56 Pearl Creek Farm
2013-01-09 13:00:00 53 73 44.6 2013-01-27 10:51:56 Pearl Creek Farm
2013-01-09 13:30:00 54 72 45.2 2013-01-27 10:51:56 Pearl Creek Farm
2013-01-09 14:00:00 55 69 44.8 2013-01-27 10:51:56 Pearl Creek Farm
2013-01-09 14:30:00 56 63 43.4 2013-01-27 10:51:56 Pearl Creek Farm
2013-01-09 15:00:00 56 60 42.1 2013-01-27 10:51:56 Pearl Creek Farm
2013-01-09 15:30:00 56 61 42.8 2013-01-27 10:51:56 Pearl Creek Farm
2013-01-09 16:00:00 55 61 41.8 2013-01-27 10:51:56 Pearl Creek Farm
2013-01-09 16:30:00 54 63 41.5 2013-01-27 10:51:56 Pearl Creek Farm
2013-01-09 17:00:00 52 66 40.8 2013-01-27 10:51:56 Pearl Creek Farm
2013-01-09 17:30:00 50 67 39.5 2013-01-27 10:51:56 Pearl Creek Farm
2013-01-09 18:00:00 49 67 38.5 2013-01-27 10:51:56 Pearl Creek Farm
2013-01-09 18:30:00 49 66 38.2 2013-01-27 10:51:56 Pearl Creek Farm
2013-01-09 19:00:00 49 66 38.2 2013-01-27 10:51:56 Pearl Creek Farm
2013-01-09 19:30:00 48 69 38.2 2013-01-27 10:51:56 Pearl Creek Farm
2013-01-09 20:00:00 47 71 38.1 2013-01-27 10:51:56 Pearl Creek Farm
2013-01-09 20:30:00 46 74 38.2 2013-01-27 10:51:56 Pearl Creek Farm
2013-01-09 21:00:00 46 74 38.2 2013-01-27 10:51:56 Pearl Creek Farm
2013-01-09 21:30:00 47 70 37.6 2013-01-27 10:51:56 Pearl Creek Farm
2013-01-09 22:00:00 48 68 38.0 2013-01-27 10:51:56 Pearl Creek Farm
2013-01-09 22:30:00 48 68 38.0 2013-01-27 10:51:56 Pearl Creek Farm
2013-01-09 23:00:00 48 69 38.2 2013-01-27 10:51:56 Pearl Creek Farm
2013-01-09 23:30:00 49 68 38.7 2013-01-27 10:51:56 Pearl Creek Farm

A total of 48 rows are displayed.